CAPE
1685 1726 2061 2279 1232 121 160 118 155 259 330 197 36 70 142 127 127 225 273 482 425 544 656 673 930 860 745 760 1233 1586 2083 1793 2445 2142 1636 1596 2035 2271 2479 2552 2390 2318 2316 2310 2046 1863 1895 1892 1875
1863 1766 1911 1518 82 70 232 210 256 342 283 326 266 241 204 162 120 167 415 459 411 353 456 409 1227 1089 832 756 1260 1392 1448 1453 1965 1757 1580 1762 2026 2156 2448 2335 2267 2318 2197 2039 1965 1909 1873 1810 1911
1161 1532 1581 59 4 103 195 300 446 372 220 219 388 337 251 218 220 293 443 419 457 484 362 790 1128 1027 935 972 1403 1868 1922 1974 2112 1774 1782 1848 2027 2461 2499 2266 2246 2205 2073 1923 1780 1682 1787 1906 2031
1435 1250 894 29 0 0 134 420 564 526 368 271 260 325 323 269 353 442 501 505 534 700 677 590 749 1005 1022 1331 1593 1780 1963 2026 2094 1904 1880 2084 2421 2283 2129 2097 2214 2081 1955 1907 1869 1859 1853 1857 2055
987 323 25 3 0 0 53 447 552 528 438 266 228 291 358 571 452 557 711 721 796 809 971 683 1542 1440 1264 1469 1749 2097 1772 2062 2220 2295 2154 2357 2119 2114 2111 2319 2305 1988 1826 1882 1811 1919 2025 2121 2219
454 95 76 29 0 15 75 414 545 614 607 450 328 547 652 550 602 846 971 907 890 1011 967 1342 1697 1869 1875 1958 2179 2421 2129 2248 2406 2313 2285 2272 2188 2259 2270 2259 1991 1911 1816 1839 1972 2078 2018 1975 2060
240 106 89 91 12 7 54 197 349 619 674 380 360 671 838 520 856 1142 1247 1077 908 1089 1269 1458 1492 1981 2221 2222 2325 2349 2218 2085 1971 2187 2286 2204 2222 2196 2169 1911 1736 1931 2095 2186 2026 1995 1763 1844 1843
246 104 62 82 100 32 26 157 308 217 549 404 398 571 774 543 864 1114 1167 1114 1124 1308 1499 1720 1877 1962 1898 2011 2330 2302 2031 1581 1781 2148 2166 2288 2278 2159 2013 1891 1959 2004 1782 1850 2107 1857 1850 1938 1878
150 177 83 74 138 127 141 183 405 370 570 529 543 378 483 394 720 1006 1207 1047 1358 1316 1453 1629 1767 2007 2082 1417 1572 1797 1780 1890 1943 2146 2106 1764 1402 1648 1567 1610 1690 1948 1753 1757 1894 1842 2007 1756 1727
31 205 92 31 70 277 194 199 561 603 538 476 679 462 404 421 795 967 1197 1430 1407 1404 1476 1297 1678 1779 1774 1391 1803 1872 1378 1137 1102 1137 1372 1258 1467 1698 1243 1567 1596 1730 1601 1746 1800 1677 1733 1878 1207
0 81 72 46 23 226 261 291 467 263 440 370 687 676 523 545 803 944 1088 1244 1283 1442 1489 1661 1496 1862 1856 1735 1666 1628 1471 1338 1428 1830 1740 1352 1456 1373 1659 1636 1547 1306 1354 1740 1661 1638 1421 1536 1322
0 0 0 27 43 162 336 345 390 248 175 274 490 709 705 727 716 807 981 1095 1159 1283 1302 1436 1615 1785 1780 3127 1740 1547 1325 1334 1220 1305 1824 1898 1678 1615 1914 1666 1762 1845 1477 1611 1586 1348 1574 1473 1192
0 0 0 0 1 22 344 410 360 358 346 408 659 857 767 775 694 752 774 898 1016 1233 1333 1377 1638 2130 2133 2314 1545 1469 1358 1273 1084 1186 1591 1469 1248 1939 1852 1756 1796 1657 1591 1399 1398 1457 1507 1446 1116
0 0 0 0 0 69 416 527 564 429 283 797 873 985 857 844 845 914 823 874 979 1098 1224 1401 1584 1981 2117 2108 1964 1649 1512 1308 1284 1139 1145 1653 1395 1886 1478 1535 1368 1476 1667 1320 1365 1585 1601 1391 999
0 0 0 1 49 289 379 665 610 538 605 1102 1050 1027 935 922 977 1080 1014 1033 1110 1193 1196 1469 1735 1907 2388 2422 2296 2068 1581 1457 1340 1256 1677 1876 2092 2071 1819 1537 1430 1414 1596 1938 1687 1573 1427 993 582
0 0 19 72 202 399 452 245 541 728 799 1203 1051 1047 948 992 992 1118 1168 1187 1201 1331 1466 1542 1446 1683 2210 2208 2113 1880 1570 1536 1510 1332 1647 2133 2059 1912 1900 1588 1399 1255 1374 1484 1460 1413 1025 547 303
0 1 9 220 264 515 520 203 550 790 831 991 986 825 897 1046 1148 1313 1275 1228 1245 1593 1788 1806 1656 1538 1887 2225 2103 2033 1931 3076 2415 1985 1983 1722 2001 1715 1910 1590 1460 1618 1355 1630 1422 1042 672 260 64
1 0 29 39 287 433 447 270 627 822 766 691 1066 846 811 870 1034 1233 1284 1352 1471 1692 2008 2096 1845 1967 2379 3197 3071 2424 2216 1881 1697 1751 2600 2352 2344 1843 1857 1620 1530 1586 1596 1259 1030 941 402 349 60
3 25 43 46 238 354 258 229 356 849 793 724 930 1018 912 726 839 1084 1409 1533 1522 1819 2213 2472 2415 2587 3167 2479 1687 1728 1514 1662 1721 1740 2283 2176 2038 1945 2011 1554 1673 1680 1515 976 609 298 143 10 67
0 3 36 85 145 204 162 226 256 420 861 648 664 962 1170 966 831 1206 1479 1471 1475 1873 2291 2614 2740 2788 3076 2124 2281 1830 1827 1556 1887 1924 2160 2193 2205 2306 1934 1929 1728 1531 371 577 216 158 22 16 44
0 0 17 88 133 170 119 212 159 144 578 674 564 580 978 1068 957 1074 1240 1398 1451 1741 2340 2648 2950 3077 3192 2743 2298 2442 2310 2605 2056 2194 2421 2609 2533 2436 2352 2136 1196 988 160 2 159 162 33 15 229
0 0 3 41 91 111 145 133 65 136 507 639 807 625 526 984 1041 1077 1095 1279 1384 1606 2034 2674 3053 3327 3241 3333 2960 3234 2219 1651 1266 1698 1361 2005 2482 2299 2176 1775 1094 183 0 59 157 32 85 203 23
0 0 0 3 68 100 136 136 63 89 135 479 796 799 503 353 770 987 1072 1050 1322 1481 1797 2317 3078 3616 3597 3319 3846 3013 2858 1663 1334 1427 1970 2351 2144 2242 1445 1695 531 176 88 308 170 87 164 44 23
0 0 4 16 31 80 91 70 10 21 88 82 267 627 700 307 309 653 832 927 1149 1342 1604 1929 2864 3797 3653 3536 3502 3459 2957 2582 1473 1968 1608 1077 1068 1574 1646 1629 687 192 90 301 214 60 71 60 66
0 0 14 35 40 41 60 58 1 1 12 30 16 147 679 487 324 442 695 892 1130 1324 1514 1841 2619 3447 3429 3471 3343 3419 3368 3086 2771 2497 1696 1242 652 741 1316 1793 869 296 432 260 108 57 6 54 42
0 0 8 40 26 29 13 6 0 16 17 0 3 52 407 639 341 408 602 819 1158 1281 1548 1815 2489 3296 3270 3245 3590 4055 3890 3180 2890 2737 1625 965 608 365 565 1715 732 359 284 263 32 0 8 26 33
0 0 0 27 48 28 2 1 0 1 16 3 29 82 199 623 594 354 598 795 1066 1328 1816 2425 3132 3002 3029 2976 3411 3706 4051 3564 2995 2780 2548 1487 1270 361 1054 1165 699 196 326 82 33 0 10 8 12
0 0 0 7 77 47 8 16 0 16 0 0 13 98 239 555 670 496 571 770 1013 1280 1567 1957 2311 2967 2788 2771 2934 3055 3240 3448 3241 3103 3211 2468 1799 1473 945 848 365 254 190 61 96 9 7 6 0
0 0 0 1 10 17 34 3 0 0 0 0 0 110 150 453 806 787 658 709 1060 1152 1365 1789 2156 2444 2701 2706 3320 3116 2923 3007 3396 3342 3438 3033 2585 1627 1121 881 401 302 225 148 188 129 0 1 2
0 0 0 6 4 12 17 1 2 0 0 0 0 5 9 240 745 962 931 971 1035 1302 1255 1444 1769 2170 2532 3125 3354 2907 2894 2988 3197 3882 3274 2691 2794 1400 1129 751 443 672 218 209 303 189 7 11 0
CIN
-118 -73 -11 -2 -2 -1 -4 -21 -6 0 0 -8 -61 -18 -28 -56 -32 -3 -4 0 0 0 0 0 -3 -6 -3 -2 -4 0 0 0 0 0 -6 -11 0 0 0 0 0 0 0 0 0 -4 -6 -1 -2
-77 -60 -27 -1 -11 0 -1 -1 0 0 -5 -1 -16 -23 -3 -32 -61 -36 -1 0 0 0 0 0 -1 -2 -5 -7 -1 0 -1 0 0 -3 -12 -7 0 -1 0 0 0 0 0 0 0 -7 -3 0 0
-91 -58 -1 0 0 -30 -8 -1 0 -2 -24 -7 -5 -5 0 -18 -14 -4 -1 -1 0 0 -1 0 -2 -3 -5 -6 0 0 0 0 0 -2 -7 -4 -1 0 0 0 0 0 0 -2 -6 -9 -4 0 0
-44 -25 -4 -19 0 0 -4 0 0 -1 -12 -22 -19 -22 -17 -5 -12 -4 -2 0 0 0 0 -12 -8 -5 -3 -2 0 0 0 0 0 -1 -3 -1 0 0 0 0 0 0 -5 -7 -6 -2 0 0 0
-65 -15 0 0 0 0 -1 0 0 0 -2 -22 -24 -30 -36 -5 -12 -4 0 0 0 0 0 0 -2 -2 -5 -2 0 0 0 0 0 0 0 0 0 -1 -4 -1 0 0 -1 -2 -3 -1 0 0 0
-6 -14 0 0 0 -17 -17 0 0 0 -3 -25 -11 -25 -6 -28 -11 0 0 0 0 0 0 0 -3 -2 -1 0 0 0 0 0 0 0 0 0 -2 -2 -3 -3 -5 0 0 -2 -1 -1 -2 -1 -3
-10 0 0 0 -1 -4 -19 -26 0 0 -6 -14 -20 -13 -14 -26 -1 0 0 0 0 0 0 0 0 0 0 0 0 0 0 0 0 0 0 -3 -3 -4 -8 -6 -9 -4 -2 -1 -2 -4 -9 -8 -18
-14 0 0 -1 0 -1 -20 -22 -19 -9 -3 -28 -16 -30 -37 -51 -9 0 0 0 0 0 0 0 0 0 0 0 0 0 0 -3 -3 -1 -2 -2 -5 -9 -15 -14 -13 -11 -11 -6 -5 -9 -12 -14 -24
-33 -1 0 0 -1 -3 -22 -14 -33 -43 -27 -30 -19 -17 -45 -99 -31 -1 0 0 0 0 0 0 0 0 0 0 0 0 -1 0 -3 -3 -5 -13 0 0 -1 -27 -25 -21 -19 -15 -11 -12 -15 -29 -42
-8 0 0 0 -1 -1 -19 -15 -27 -40 -38 -20 -23 -31 -66 -100 -44 -12 -3 0 0 0 0 0 0 0 0 0 0 0 0 0 -1 0 0 0 0 0 -7 -21 -44 -32 -31 -22 -24 -28 -31 -33 0
0 -1 0 -1 -4 0 -13 -20 -25 -16 -26 -26 -25 -42 -69 -81 -47 -17 -5 0 0 0 0 0 0 0 0 0 0 0 0 0 0 0 0 0 0 0 0 0 0 0 -32 0 -4 -6 0 0 0
0 0 0 0 -10 -5 -7 -6 -22 -22 -16 -32 -34 -50 -69 -59 -50 -25 -4 0 0 0 0 0 0 0 0 0 0 0 0 0 0 0 0 0 0 0 0 0 0 -1 0 0 0 0 0 0 -2
0 0 0 0 -7 -3 -4 -5 -10 -19 -40 -46 -63 -70 -58 -48 -49 -34 -22 -8 -3 0 0 0 0 0 0 0 0 0 0 0 0 0 0 0 0 -1 0 0 -1 -1 0 0 0 0 0 0 0
0 0 0 0 0 -4 -3 -4 -7 -11 -22 -48 -66 -72 -67 -53 -49 -32 -39 -28 -13 -1 0 0 0 0 0 0 0 0 0 0 0 0 0 -1 0 -1 0 0 0 0 0 0 0 0 0 0 0
0 0 0 -6 -8 -11 -4 -17 -9 -10 -31 -38 -52 -62 -69 -64 -52 -48 -49 -44 -26 -6 -1 0 0 0 0 0 0 0 0 0 0 0 0 0 0 -1 0 0 0 0 0 0 0 0 0 0 0
0 0 0 -5 -16 -24 -7 -1 -13 -17 -12 -20 -42 -57 -83 -85 -76 -62 -53 -41 -25 -4 -1 0 0 0 0 0 0 0 0 0 0 0 0 0 0 0 0 0 0 0 0 0 0 0 0 -5 -56
0 0 0 -4 -18 -35 -11 0 -16 -22 -6 -6 -30 -48 -64 -76 -79 -69 -58 -50 -31 -2 0 0 -1 0 0 0 0 0 0 0 0 0 0 0 0 0 0 0 0 0 0 0 0 0 0 -59 -153
0 0 0 0 -19 -16 -7 0 -25 -24 -14 -6 -14 -28 -53 -63 -86 -76 -67 -46 -21 -4 0 0 0 0 0 0 0 0 0 0 0 0 0 0 0 0 0 0 0 0 0 0 0 0 -31 -61 -182
0 0 0 0 -6 -7 -2 -6 -7 -31 -12 -14 -9 -12 -24 -48 -55 -65 -49 -34 -26 -6 0 0 0 0 0 0 0 0 0 0 0 0 0 0 0 0 0 0 0 0 0 0 -1 -45 -119 0 -117
0 0 0 0 -10 -6 0 -4 -10 -22 -33 -18 -26 -28 -19 -20 -39 -57 -49 -42 -36 -11 -1 0 0 0 0 0 0 0 0 0 0 0 0 0 0 0 0 0 0 0 -8 -3 -77 -103 -34 0 -24
0 0 0 -1 -12 -10 0 -2 -5 -13 -36 -50 -50 -57 -43 -34 -40 -50 -54 -46 -43 -23 -1 0 0 0 0 0 0 0 0 0 0 0 0 0 0 0 0 0 0 0 -78 0 -118 -121 -65 0 -95
0 0 0 0 0 0 -3 -1 -8 -2 -23 -46 -63 -59 -71 -82 -83 -54 -65 -52 -45 -44 -15 0 0 0 0 0 0 0 0 0 0 0 0 0 0 0 0 0 -1 -94 0 -149 -114 -241 -161 -102 0
0 0 0 0 0 0 0 0 0 -6 -4 -18 -37 -54 -78 -90 -108 -97 -87 -97 -60 -40 -27 -4 0 0 0 0 0 0 0 0 -1 -2 0 0 0 0 0 0 -50 -110 -107 -50 -79 -127 -86 -178 -74
0 0 0 -1 0 0 0 0 0 -3 -10 -4 -11 -32 -60 -78 -105 -133 -121 -113 -95 -57 -38 -26 -5 -1 0 0 0 0 0 0 -4 -2 -14 -38 -34 -19 -10 -6 -57 -134 -124 -58 -63 -112 -100 -109 -125
0 0 0 0 0 0 0 0 0 -1 -7 -4 0 -14 -53 -76 -91 -117 -151 -151 -135 -106 -70 -56 -24 -7 -1 0 0 0 0 0 0 0 -13 -31 -63 -61 -26 -2 -36 -97 -54 -64 -110 -99 -18 -77 -99
0 0 0 0 0 0 0 0 0 -34 -14 -1 -5 -15 -36 -63 -76 -121 -136 -143 -133 -118 -102 -82 -53 -15 -9 -3 0 0 0 0 0 0 -11 -54 -88 -115 -79 0 -30 -73 -81 -84 -164 0 0 -101 -7
0 0 0 0 0 0 0 0 0 -10 -24 -7 -7 -20 -28 -47 -58 -102 -136 -136 -139 -120 -104 -83 -37 -43 -29 -17 -5 -1 0 0 0 0 0 -21 -32 -93 -39 -37 -41 -104 -56 -130 -151 0 0 0 0
0 0 0 0 0 0 0 0 0 -27 0 0 -3 -16 -18 -39 -59 -76 -110 -133 -146 -116 -106 -109 -96 -57 -35 -38 -37 -27 -12 -1 0 0 0 -13 -24 -13 -42 -45 -115 -130 -94 -100 -86 -85 -5 -54 0
0 0 0 0 0 0 0 0 0 0 0 0 0 -11 -11 -25 -57 -75 -72 -105 -128 -105 -94 -102 -101 -88 -56 -45 -41 -45 -36 -18 -7 -1 -1 -1 0 -28 -28 -33 -90 -107 -133 -67 -24 -36 0 0 0
0 0 0 0 0 0 0 0 0 0 0 0 0 0 -2 -16 -45 -78 -75 -100 -111 -119 -101 -85 -82 -83 -70 -52 -60 -64 -46 -34 -26 -3 -10 -70 -1 -89 -64 -62 -47 -3 -57 -39 0 -14 -75 -110 0
Wind_Speed
16 15 6 8 8 4 13 8 8 9 8 11 7 5 9 9 4 8 12 14 16 14 14 14 10 10 12 11 12 12 12 12 11 11 10 10 10 10 11 11 9 10 10 10 9 9 11 10 9
13 11 6 7 4 5 9 7 10 11 13 14 12 7 5 6 8 18 15 16 14 15 15 15 8 9 10 10 11 12 13 12 11 10 9 8 7 8 9 9 9 8 9 8 8 9 9 8 8
12 11 7 4 4 9 11 8 12 13 10 4 5 9 5 12 15 15 20 18 15 12 13 14 8 9 10 10 10 11 12 11 10 9 8 6 6 6 7 7 8 8 7 7 8 7 7 7 8
8 7 7 3 13 8 11 11 13 12 8 3 9 12 11 14 10 13 18 16 16 14 12 13 8 9 10 11 11 12 12 11 10 9 8 7 6 6 6 6 7 6 5 5 4 4 5 6 6
6 4 4 9 12 10 10 12 9 6 7 8 11 12 14 7 11 18 16 14 14 14 12 14 10 11 12 12 12 12 11 10 10 10 9 7 6 4 4 5 5 4 3 3 3 4 6 6 6
8 5 4 10 12 9 8 10 6 5 8 8 14 16 11 12 16 15 15 12 13 14 13 14 10 11 12 13 13 12 12 10 9 9 8 6 4 3 3 3 2 2 2 2 4 5 6 5 6
7 6 5 9 11 9 10 9 4 8 10 9 17 14 12 15 15 15 15 14 13 13 10 11 13 12 12 12 12 12 11 10 9 8 7 5 4 3 2 1 3 3 3 5 5 5 5 5 5
5 6 4 2 7 13 11 10 7 8 8 14 9 7 14 18 17 16 15 14 12 12 13 10 9 11 12 12 12 11 10 9 8 7 6 5 4 2 3 5 4 4 5 6 6 4 4 5 5
4 8 4 6 4 12 14 10 7 7 12 8 9 7 20 21 19 17 16 12 12 10 11 12 12 11 10 10 10 10 9 8 8 8 6 8 5 3 3 8 5 5 3 5 4 4 4 2 6
9 8 6 4 1 13 15 11 13 10 13 10 10 9 22 21 19 19 18 16 15 14 12 11 12 12 11 9 10 9 9 9 9 8 6 5 0 2 6 1 2 3 2 2 4 2 4 11 5
7 11 6 2 1 11 18 12 12 10 12 12 15 17 23 22 20 19 17 16 16 15 13 12 10 9 10 7 7 5 6 5 6 7 6 4 3 2 3 1 2 3 5 4 5 4 1 6 5
10 10 10 7 7 11 17 16 11 10 4 13 14 20 24 23 20 19 17 16 15 15 13 13 13 10 10 6 7 7 6 6 5 7 7 5 5 4 3 2 1 3 2 3 2 3 4 5 5
12 12 9 10 8 11 14 15 10 12 9 11 16 21 24 22 21 18 17 16 15 15 14 14 13 11 9 9 7 6 6 6 7 6 7 7 6 2 4 2 3 4 2 0 3 3 4 5 5
4 7 9 10 9 11 13 11 11 13 13 12 18 22 22 22 21 18 18 16 16 15 15 14 14 12 11 10 9 7 7 7 6 6 7 8 7 2 5 4 3 4 4 2 3 4 6 5 5
8 12 5 9 12 10 13 11 14 12 13 13 18 19 21 21 21 20 18 17 16 15 15 15 14 14 13 12 10 9 7 8 7 7 7 8 6 5 6 4 5 5 2 4 5 3 4 5 4
14 14 13 11 15 9 15 12 16 16 16 15 17 18 20 21 21 19 19 18 18 16 16 15 13 15 15 12 10 9 9 8 8 7 6 8 8 8 7 4 5 3 5 5 4 5 5 5 5
15 14 13 12 14 8 16 5 16 15 16 15 15 18 19 19 20 20 19 18 17 16 16 16 16 15 15 13 10 10 10 6 4 7 8 8 8 8 7 5 6 5 6 4 5 5 4 5 5
18 18 11 13 15 12 17 9 6 13 16 16 17 18 19 20 22 20 19 18 17 17 15 16 14 15 14 9 8 8 7 8 9 8 6 8 6 8 6 5 6 5 5 6 3 4 5 5 5
17 15 13 15 15 17 15 13 11 11 14 16 17 18 19 20 19 19 19 19 18 16 16 16 16 15 10 10 10 10 9 8 7 7 7 7 7 6 5 5 6 5 5 3 3 6 5 6 2
21 18 17 14 9 15 12 13 12 13 16 17 19 19 19 19 19 20 20 20 20 18 17 16 16 16 13 11 9 8 7 9 9 8 6 7 8 7 7 6 5 2 3 2 4 4 6 3 2
23 21 18 15 11 15 11 14 14 15 15 16 17 19 20 20 21 21 21 21 20 19 19 17 17 16 14 14 8 8 7 6 6 7 8 9 8 7 6 5 3 3 5 2 3 3 3 5 2
24 22 18 14 13 13 16 12 14 15 15 17 20 21 21 22 20 20 21 21 21 19 18 18 17 16 15 15 12 13 9 9 8 6 5 4 6 6 6 6 4 3 3 1 3 2 4 4 3
23 21 19 18 15 18 16 12 12 6 14 19 23 24 24 23 22 22 22 22 20 19 18 17 17 16 16 15 14 11 12 9 7 6 4 6 6 8 9 8 7 5 6 5 2 2 3 2 5
20 18 13 17 15 19 23 15 15 12 14 16 16 22 24 24 22 21 21 21 21 20 19 17 17 16 16 16 16 15 12 11 8 8 7 7 8 8 9 9 7 6 5 5 4 3 4 4 4
22 18 12 16 16 15 18 20 15 11 12 15 16 17 22 23 22 22 23 22 21 22 21 18 18 18 17 18 17 17 16 14 13 10 9 8 7 7 10 9 8 7 6 4 4 4 3 4 5
27 25 16 24 15 14 21 17 17 18 17 21 14 13 19 24 24 25 25 23 23 23 22 21 19 18 18 18 17 15 17 12 12 12 9 9 8 7 7 9 8 8 7 6 6 6 6 5 5
28 28 25 25 20 18 17 14 23 16 14 16 14 13 16 22 26 25 25 24 23 23 22 21 19 19 19 19 16 16 15 16 12 11 11 8 7 6 7 10 8 8 8 7 8 7 7 5 7
30 20 25 21 26 23 20 19 11 18 18 17 14 15 17 20 22 25 25 26 24 23 22 22 21 20 18 18 17 15 16 15 14 13 13 13 10 8 8 10 9 10 8 8 9 8 8 7 6
21 25 22 23 22 20 18 19 16 16 15 17 14 14 16 18 21 23 25 24 23 23 22 22 20 20 19 18 18 17 16 16 15 15 13 10 9 9 9 8 8 9 10 10 10 10 8 7 8
26 26 26 19 26 20 23 18 15 14 18 22 21 16 11 12 18 20 21 23 24 24 23 22 21 20 20 19 17 17 16 16 17 14 14 15 11 13 12 7 7 7 8 10 12 12 10 10 10
Wind_Direction
165 177 190 211 236 131 137 175 118 130 115 69 60 77 73 24 18 70 133 129 131 137 136 146 129 120 119 121 112 118 120 120 117 110 109 101 92 83 83 84 82 80 77 70 67 56 50 45 37
166 176 225 271 258 110 83 116 93 79 107 120 93 140 104 80 59 117 129 130 141 131 139 135 122 124 123 128 121 122 127 127 121 125 113 106 96 88 86 84 81 78 71 67 61 49 42 36 27
180 212 265 293 21 50 101 107 100 115 131 103 110 60 73 101 127 131 122 139 138 132 129 109 129 132 136 136 129 128 126 126 132 131 122 111 103 93 84 79 81 74 69 61 54 43 33 24 15
191 193 224 48 81 77 100 116 124 130 125 85 107 91 85 111 110 121 136 146 138 139 141 120 140 138 139 140 138 130 132 134 138 144 140 136 120 109 96 93 86 83 71 57 46 28 9 5 10
232 248 159 83 78 88 108 125 147 120 119 130 125 113 114 113 115 131 140 154 146 147 144 144 154 144 144 146 152 147 146 141 148 149 149 147 137 119 113 103 97 89 70 45 13 4 353 352 351
223 253 131 84 97 106 119 147 143 97 119 122 127 122 119 125 143 144 148 152 150 145 144 135 146 143 147 151 159 163 156 152 154 155 157 152 148 139 99 96 86 62 24 355 341 349 349 352 352
283 251 57 96 109 137 137 157 170 131 145 143 139 130 125 150 142 148 151 155 146 140 144 145 154 149 149 153 158 162 162 161 160 159 163 164 180 176 179 80 24 9 2 343 348 10 4 2 18
285 272 157 215 145 115 146 167 123 144 113 133 145 159 157 150 150 146 149 147 153 154 142 149 151 162 163 155 157 162 165 169 162 163 161 174 178 190 191 240 96 6 359 6 3 41 42 58 57
260 249 141 90 257 124 150 152 153 103 138 174 158 151 141 147 153 154 149 160 154 161 163 157 159 150 167 153 158 172 177 175 165 169 168 192 235 167 209 65 356 308 328 358 35 58 73 226 163
240 275 83 42 118 147 161 166 156 171 158 171 156 127 143 156 162 164 165 167 167 164 169 166 158 162 161 170 157 178 176 183 191 190 171 231 203 329 307 259 276 241 270 185 113 104 225 242 6
211 265 88 207 213 162 165 175 167 172 177 177 171 154 156 164 171 173 174 173 173 169 171 169 166 174 174 154 183 181 185 190 195 208 227 220 249 224 266 353 183 160 182 208 190 187 7 10 344
255 242 275 284 165 186 170 157 183 174 115 166 166 163 163 172 176 179 180 178 175 173 177 177 170 179 191 162 192 193 197 201 211 203 205 239 228 200 273 310 355 230 1 5 331 0 354 336 328
242 266 269 263 206 193 175 173 160 177 132 154 159 167 173 177 179 183 185 180 180 179 183 185 180 184 195 193 198 204 214 199 214 202 197 242 242 233 285 323 300 321 279 287 300 320 336 324 301
293 260 274 259 191 178 186 169 170 176 160 166 167 174 179 183 183 184 189 186 189 187 189 189 193 194 202 208 212 216 215 229 222 219 217 214 256 191 267 247 246 269 280 312 312 342 321 320 321
231 243 225 231 166 168 198 175 209 142 163 165 179 181 182 188 187 189 189 192 193 194 194 195 197 193 205 206 207 215 220 222 222 223 218 228 238 255 270 261 256 256 278 263 240 284 251 289 317
221 231 222 156 172 159 198 188 194 157 173 175 181 181 187 191 192 193 193 195 193 199 198 201 202 197 202 209 207 219 220 219 223 224 219 222 224 232 245 246 251 280 257 268 275 288 316 299 317
209 230 216 151 192 157 203 240 158 176 187 179 184 184 188 193 198 194 197 197 196 198 197 202 207 208 205 208 214 219 219 241 247 223 236 217 239 245 252 252 260 236 268 282 293 294 313 314 305
208 224 191 193 187 191 199 215 136 184 200 193 187 191 194 196 201 195 199 195 198 194 198 202 205 210 207 207 216 227 224 222 230 229 198 231 216 226 226 238 266 258 236 247 287 329 326 309 315
225 208 215 213 155 203 213 218 182 188 208 208 195 197 199 204 195 195 197 196 197 198 198 202 205 205 201 205 210 205 222 225 225 246 242 217 223 235 242 241 224 242 268 334 307 284 250 302 23
238 225 218 188 168 219 214 230 226 192 211 210 205 203 208 206 194 196 197 200 200 198 202 202 209 208 206 209 211 233 220 223 197 227 228 245 233 223 225 249 230 213 287 245 291 279 305 273 27
224 230 216 215 180 227 250 231 231 209 207 211 215 211 209 208 202 196 200 200 200 200 200 205 207 211 206 224 206 216 236 253 212 225 215 210 219 217 229 196 257 177 281 219 210 217 284 294 117
225 223 234 220 202 223 205 245 221 212 205 211 210 212 213 208 206 202 202 204 203 203 202 205 208 210 212 207 220 207 223 223 218 222 222 231 215 214 190 186 180 213 262 140 185 204 294 270 288
232 226 218 245 217 239 179 241 257 177 223 215 216 210 211 209 207 205 201 203 207 202 203 205 206 209 214 203 223 206 223 221 228 214 214 229 185 205 196 188 183 188 226 167 261 221 236 225 304
226 250 233 233 234 229 231 211 230 208 229 239 221 212 209 207 205 205 205 202 204 203 202 204 204 207 207 208 204 217 221 229 222 199 206 218 206 193 203 193 192 190 203 206 221 217 219 275 302
217 212 205 216 224 240 207 231 229 248 216 242 263 205 209 205 201 200 202 201 201 202 201 202 202 207 205 205 208 209 215 214 221 223 210 228 214 207 184 203 197 196 206 204 234 202 227 223 261
213 216 225 219 220 217 231 234 229 234 261 261 256 253 192 203 201 201 199 201 200 200 201 203 201 206 204 204 207 210 211 215 217 214 231 209 220 205 194 199 202 218 203 207 193 202 231 209 228
201 220 228 243 226 245 224 208 239 245 247 250 249 220 204 205 205 198 198 201 199 200 199 201 203 204 204 203 204 209 208 218 214 223 202 208 219 212 192 192 203 213 213 210 198 230 202 222 226
230 209 220 229 237 227 232 240 216 216 227 243 220 222 213 203 206 203 199 198 197 198 200 202 205 206 205 205 204 208 207 206 210 209 203 212 200 219 181 200 194 190 204 222 217 226 211 227 242
208 224 219 236 228 243 239 232 226 233 253 269 269 217 224 204 203 206 202 201 195 199 200 202 203 205 204 202 204 207 205 201 204 207 204 211 181 183 193 208 208 203 193 218 227 247 261 231 237
226 213 217 222 224 237 248 243 220 233 227 240 245 261 226 213 204 204 204 198 195 200 199 202 201 203 204 203 201 204 204 203 202 201 198 172 195 161 179 171 224 248 228 223 230 236 239 226 235